Theta_e
326 326 327 327 326 326 326 326 326 326 326 327 327 327 327 327 327 327 327 328 328 327 327 326 325 325 326 327 327 326 326 326 325 325 325 326 326 326 326 325 324 323 322 322 321 320 320 320 320 319 319 319 319 319 319 318 318 318 318 318 317 317 317 316 316 315 314 313 313 311 310 308 305 303 301 300 299 299 299 298 298 297 297 297 297 297
326 326 326 326 326 325 325 325 326 326 325 326 326 326 326 326 326 326 327 328 328 328 327 326 325 326 327 327 327 326 326 326 325 325 325 325 325 325 324 324 323 322 321 320 319 319 319 319 319 319 319 319 319 319 319 318 318 318 318 317 317 316 316 315 314 313 312 311 310 308 306 304 302 300 299 299 298 298 298 297 297 297 297 297 297 297
325 325 325 325 325 324 324 324 325 325 324 324 324 324 324 324 325 325 326 328 328 328 327 326 326 326 326 325 325 325 325 325 325 325 324 324 324 323 323 322 321 320 319 319 319 319 319 318 318 318 318 319 319 319 319 319 318 318 317 317 316 315 314 313 312 311 310 308 306 304 302 301 300 299 298 298 298 297 297 297 297 297 297 297 297 297
324 324 324 324 324 324 323 323 324 323 323 322 322 322 322 322 323 324 326 327 328 327 326 325 324 324 323 322 321 322 323 324 324 324 323 322 322 321 321 321 320 320 319 319 319 318 318 317 317 318 318 319 319 319 319 318 318 317 317 316 315 314 313 311 310 308 307 305 303 301 300 299 298 298 298 297 297 297 297 297 297 297 297 297 297 297
323 323 323 324 324 323 323 322 322 321 321 320 320 320 320 321 322 324 325 327 327 326 324 323 322 321 320 319 319 320 322 323 323 322 321 320 320 320 320 320 320 320 320 319 318 317 317 317 317 318 319 319 319 319 319 318 318 317 316 314 313 312 310 309 307 305 304 302 301 299 299 298 298 297 297 297 297 296 297 297 297 297 297 297 297 296
322 322 322 322 322 322 321 320 320 319 318 318 318 319 319 320 322 323 324 326 326 325 323 322 321 320 319 319 319 320 322 322 321 320 319 318 318 319 320 321 321 320 319 318 317 317 317 317 318 318 319 319 319 319 318 317 317 316 314 312 310 308 307 306 304 303 301 300 299 298 298 297 297 297 297 296 296 296 297 297 297 297 297 297 296 296
321 321 321 320 320 319 319 318 318 317 317 317 318 318 319 320 320 322 323 324 325 324 323 322 321 320 319 320 320 321 321 321 320 319 318 318 319 319 320 321 320 319 318 317 317 317 317 318 318 318 319 319 318 318 317 317 315 313 311 308 306 305 304 303 301 300 299 299 298 297 297 297 296 296 296 296 296 297 297 297 297 297 296 296 296 296
321 320 319 318 317 317 317 316 316 316 316 317 317 318 318 319 319 320 321 322 323 323 323 322 322 321 321 320 320 320 320 319 319 318 318 318 319 319 320 320 319 318 317 317 317 317 318 318 318 318 318 318 317 317 317 316 313 310 306 304 303 302 301 300 300 299 298 297 297 297 296 296 296 296 297 297 297 297 297 296 296 296 296 296 296 296
321 320 318 317 316 316 316 316 316 316 316 316 316 317 318 318 318 319 319 320 320 320 321 321 322 322 321 320 319 318 318 317 317 317 317 317 318 318 319 319 318 317 317 317 317 317 317 317 317 317 317 317 316 316 316 314 311 307 304 302 301 301 300 299 298 298 297 297 297 296 296 296 296 296 297 297 297 296 296 296 296 296 296 296 296 296
320 319 318 317 316 315 315 315 315 314 314 314 314 315 316 317 317 317 317 318 318 318 318 319 319 320 320 319 318 316 316 316 316 316 316 316 316 316 317 317 317 316 316 316 316 316 316 316 316 316 316 316 316 315 314 312 308 305 303 302 301 300 299 298 297 297 297 297 296 296 296 296 296 297 297 296 296 296 296 296 296 296 296 296 296 296
318 318 317 316 315 315 314 314 314 313 313 313 313 313 314 314 315 316 316 316 315 315 316 316 316 316 316 316 315 315 314 314 314 314 314 314 314 315 315 315 315 315 314 314 314 314 315 315 315 315 315 315 315 314 312 309 306 303 302 301 300 299 298 297 297 297 296 297 296 296 296 296 296 296 296 296 296 296 296 296 296 296 296 296 296 296
317 317 316 315 315 314 313 312 312 312 312 312 311 311 311 312 313 313 314 314 314 314 314 314 314 314 314 313 313 313 313 313 313 313 313 313 313 314 314 314 314 313 313 313 313 313 313 314 315 315 315 314 313 311 309 305 303 302 301 300 299 298 297 297 296 296 296 296 296 296 296 296 296 296 296 296 296 296 296 296 296 296 296 296 296 296
316 316 315 314 313 313 312 311 310 310 310 311 311 311 311 311 311 311 312 312 313 313 313 313 312 312 313 313 313 313 313 312 312 313 313 313 313 313 313 313 312 312 312 312 312 312 313 313 314 314 313 312 310 307 304 301 300 300 299 299 298 297 297 296 296 296 296 296 296 296 296 296 296 296 296 296 296 296 296 296 296 296 296 296 296 296
316 315 314 313 312 312 312 311 311 310 311 311 311 312 312 312 311 311 310 310 311 311 312 312 312 312 312 312 313 312 312 312 312 313 313 313 313 312 312 311 311 311 311 311 312 312 312 312 312 311 309 307 304 301 299 299 299 299 298 298 297 297 296 296 296 296 296 296 296 296 296 296 296 296 296 296 296 296 296 296 296 296 296 296 296 295
315 314 314 314 313 313 313 312 312 311 311 311 311 311 311 311 310 310 310 310 310 310 310 311 311 311 311 312 312 312 311 311 311 312 312 312 311 311 310 310 310 310 311 311 311 310 310 309 308 306 304 301 299 298 297 298 298 298 297 297 297 296 296 296 296 296 296 296 296 296 296 296 296 296 296 296 296 296 296 296 296 296 296 295 295 295
313 313 314 314 314 314 314 313 313 312 312 312 311 311 311 310 310 310 310 310 310 310 310 310 310 310 310 311 311 310 310 310 310 310 311 310 310 310 309 310 310 309 309 309 308 307 306 306 304 302 299 297 297 297 297 297 297 297 297 296 296 296 296 296 296 296 296 296 296 296 296 296 296 296 296 296 296 296 296 296 296 295 295 295 295 295
312 313 313 314 314 315 315 314 314 313 312 312 312 311 311 311 311 311 311 310 310 310 310 310 310 310 311 310 310 310 310 309 309 310 310 309 309 309 309 308 307 307 306 306 306 304 303 303 301 299 297 296 296 296 297 297 297 296 296 296 296 296 296 296 296 296 296 296 296 296 296 296 296 296 296 296 296 296 296 296 295 295 295 295 295 294
313 313 313 313 314 314 315 315 314 314 313 313 313 313 312 311 311 311 312 311 311 311 311 310 310 310 311 310 310 309 310 309 309 309 309 309 308 307 306 305 304 303 303 304 304 303 302 300 299 298 297 296 296 296 296 296 296 296 296 296 296 296 296 296 296 296 296 296 296 296 296 296 296 296 296 296 296 296 295 295 295 295 295 294 294 294
312 312 312 313 313 314 314 315 315 315 314 314 314 313 313 312 312 312 312 312 312 311 311 310 310 310 310 310 309 309 309 309 309 309 308 307 306 304 302 301 300 299 300 302 302 302 301 300 298 298 297 297 296 296 296 296 296 296 296 296 296 296 296 296 296 296 296 296 296 296 296 296 296 296 296 296 296 295 295 295 295 295 294 294 294 294
313 313 313 313 313 314 314 314 314 314 314 314 313 313 312 312 312 312 312 312 312 311 310 310 309 309 308 308 308 307 307 307 307 306 305 304 302 300 299 299 298 298 299 300 301 301 301 300 299 298 297 297 296 296 296 296 296 296 296 296 296 296 296 296 296 296 296 296 296 296 296 296 296 296 296 296 295 295 295 295 295 295 294 294 294 294
314 314 313 313 313 313 313 314 314 314 314 313 313 312 312 311 311 311 311 311 310 309 308 308 307 307 306 306 305 305 305 305 304 302 300 301 300 299 299 299 299 298 299 300 301 302 301 299 298 297 297 296 296 296 296 296 296 296 296 295 295 295 295 295 295 295 296 296 296 296 296 296 296 295 295 295 295 295 295 295 294 294 294 294 294 294
312 312 312 312 312 312 312 313 313 313 313 313 313 312 312 311 310 310 310 309 308 307 306 305 304 304 303 303 302 302 302 303 301 299 298 299 300 301 301 302 301 300 300 301 302 302 301 299 297 296 296 296 295 295 295 295 295 295 295 295 295 295 295 295 295 295 295 295 295 295 295 295 295 295 295 295 295 295 295 294 294 294 294 294 294 294
311 311 312 311 311 311 312 312 312 312 313 312 312 311 311 310 309 308 308 307 306 305 304 303 302 302 301 300 300 300 300 301 300 299 298 300 301 302 303 304 303 302 300 301 301 301 299 297 296 295 295 295 295 295 295 295 295 295 295 295 295 295 295 295 295 295 295 295 295 295 295 295 295 295 295 295 295 294 294 294 294 294 294 294 293 293
311 311 311 311 311 311 311 312 312 312 312 312 311 311 310 309 308 307 306 305 305 304 303 302 302 302 301 300 300 299 300 300 301 300 300 301 302 303 304 304 303 301 299 300 300 299 297 296 295 295 295 295 295 295 295 295 295 295 295 295 295 295 295 295 295 295 295 295 295 295 295 295 295 295 295 294 294 294 294 294 294 294 293 293 293 293
311 311 311 311 311 311 311 312 312 311 311 311 311 311 310 310 309 308 307 306 305 304 303 303 302 302 301 301 301 300 300 301 302 302 301 301 302 302 303 302 301 299 297 297 297 297 295 295 295 295 295 295 294 294 294 295 295 295 295 295 295 295 295 295 295 295 295 295 295 295 295 295 294 294 294 294 294 294 294 294 293 293 293 293 293 293
311 311 311 311 311 311 311 311 311 310 310 310 310 310 310 309 309 308 307 306 305 305 304 303 302 301 301 301 301 300 300 300 301 301 300 299 299 299 299 299 298 297 295 295 295 295 295 294 294 294 294 294 294 294 294 294 294 294 294 294 294 294 294 295 295 295 295 295 295 295 294 294 294 294 294 294 294 293 293 293 293 293 293 293 293 293
309 309 309 310 310 310 310 310 310 309 309 309 309 309 308 308 308 307 306 306 305 305 304 302 301 301 301 301 300 299 299 299 299 299 297 297 297 296 296 296 296 295 294 294 295 295 294 294 294 294 294 294 294 294 294 294 294 294 294 294 294 294 294 294 294 295 295 295 294 294 294 294 294 294 293 293 293 293 293 293 293 293 293 293 293 293
308 308 308 308 308 308 308 308 308 308 308 308 308 308 307 307 306 306 305 304 304 304 303 301 301 301 301 301 300 299 298 298 298 297 296 295 295 294 294 295 294 294 294 294 294 294 294 294 294 294 294 294 294 294 294 294 294 294 294 294 294 294 294 294 295 295 294 294 294 294 294 294 294 293 293 293 293 293 293 293 293 293 293 293 293 293
307 307 307 307 307 307 307 307 307 307 307 307 306 306 306 306 305 304 303 303 303 303 301 301 301 301 301 300 299 298 297 297 297 296 295 295 294 294 294 294 294 294 294 294 294 294 293 293 293 293 293 293 294 294 294 294 294 294 294 294 294 294 294 295 295 295 294 294 294 294 294 294 293 293 293 293 293 293 293 293 293 293 293 293 293 293
306 306 306 306 306 306 306 306 306 306 306 305 305 305 305 305 304 303 302 303 303 302 301 300 300 300 300 299 297 297 296 296 296 296 295 294 294 294 294 294 294 294 294 294 293 293 293 293 293 293 293 293 293 294 294 294 294 294 294 294 294 294 294 294 294 294 294 294 294 294 294 294 294 293 293 293 293 293 293 293 293 293 293 293 293 293
306 306 306 305 305 305 305 304 304 304 304 304 304 304 303 303 303 302 302 302 302 301 300 300 299 299 298 297 296 295 295 295 296 295 294 294 294 294 294 294 294 294 293 293 293 293 293 293 293 293 293 293 293 294 294 294 294 294 294 294 294 294 294 294 294 294 294 294 294 294 294 294 293 293 293 293 293 293 293 293 293 293 293 293 293 293
304 304 304 304 304 304 304 303 302 302 302 302 302 302 302 301 301 301 301 300 300 299 299 298 297 297 296 295 295 294 294 294 295 294 293 293 293 293 294 294 293 293 293 293 293 293 293 293 293 293 293 293 293 294 294 294 293 293 293 293 294 294 294 294 294 294 294 294 294 294 294 293 293 293 293 293 293 293 293 293 293 292 292 292 292 292
303 302 302 302 302 302 302 301 301 300 300 299 299 298 298 298 298 298 298 297 297 297 297 296 296 295 294 294 294 293 293 293 293 293 293 293 293 293 293 293 293 293 293 293 293 293 293 293 293 293 293 293 293 293 294 293 293 293 293 293 293 293 293 294 294 294 294 294 294 293 293 293 293 293 293 293 293 293 293 292 292 292 292 292 292 292
300 300 300 300 300 300 299 299 298 298 297 296 295 295 294 294 294 294 294 294 294 294 294 294 294 294 293 293 293 293 293 293 293 293 293 293 293 293 293 293 292 292 293 293 293 293 293 293 293 293 293 293 293 293 293 293 293 293 293 293 293 293 293 293 293 293 293 293 293 293 293 293 293 293 293 293 293 293 292 292 292 292 291 291 291 292
297 296 297 297 297 297 296 296 296 295 294 293 292 292 291 291 291 292 292 292 292 292 292 292 293 293 293 293 293 293 293 293 293 292 292 292 293 293 293 292 292 292 293 293 293 293 293 293 293 293 293 292 292 293 293 293 293 293 293 293 293 293 293 293 293 293 293 293 293 293 293 293 293 293 293 293 292 292 292 292 292 291 291 291 291 291
293 294 294 294 294 294 293 293 293 292 292 291 291 290 290 290 290 290 290 290 291 291 291 291 292 292 292 292 292 293 292 292 292 292 292 292 292 292 292 292 292 292 293 293 293 293 293 293 293 293 293 293 293 293 293 293 293 293 293 293 293 292 292 293 293 293 293 293 292 292 292 292 292 292 292 292 292 292 292 292 291 291 291 290 290 290
291 291 291 291 291 291 291 291 291 291 290 290 290 290 290 290 290 290 290 290 290 290 291 291 291 291 292 292 292 292 292 292 292 292 292 292 292 292 292 292 292 292 293 293 293 293 293 293 293 293 293 293 293 293 293 293 293 293 293 292 292 292 292 292 292 292 292 292 292 292 292 292 292 292 292 292 292 292 292 291 291 291 290 290 290 290
290 290 290 290 289 289 289 289 290 290 290 289 289 289 289 290 290 290 290 290 290 291 291 291 291 291 292 292 292 292 292 292 292 292 292 292 292 292 291 292 292 292 293 293 293 293 293 293 293 293 293 293 294 294 294 294 294 294 293 293 292 292 291 291 292 292 292 292 292 292 292 292 292 292 292 292 292 292 291 291 291 290 290 290 290 290
289 289 289 289 288 288 289 289 289 289 289 289 289 289 289 290 290 290 290 290 290 291 291 291 291 292 292 292 292 292 292 292 292 291 291 291 291 291 291 292 292 292 292 293 293 293 293 293 293 293 293 294 293 293 293 293 294 294 293 293 293 292 291 291 291 291 291 292 292 292 292 292 292 292 292 292 292 292 291 291 291 290 290 290 290 290
288 288 288 288 288 288 288 288 289 289 289 289 289 289 289 290 290 290 290 290 290 291 291 291 291 292 292 292 292 292 292 292 291 291 291 291 291 291 291 292 292 292 292 293 293 293 293 293 293 293 293 293 293 293 293 293 293 293 293 293 293 293 292 291 291 291 291 291 291 292 292 292 292 292 292 292 292 291 291 291 291 290 290 290 290 291
288 288 288 288 288 288 288 288 288 288 288 289 289 289 289 289 290 290 290 290 290 291 291 291 291 291 292 292 292 292 291 291 291 291 291 291 291 291 292 292 292 292 293 293 293 293 293 293 293 293 293 293 293 293 293 293 293 293 293 293 293 293 292 292 291 291 291 291 291 291 291 292 292 292 292 292 291 291 291 291 290 290 290 290 290 291
288 287 287 288 287 288 288 288 288 288 288 288 289 289 289 289 290 290 290 290 291 291 291 291 291 291 291 291 291 291 291 291 291 291 291 291 291 291 292 292 292 292 292 292 292 292 293 293 293 293 293 293 293 293 293 293 293 292 292 292 292 292 292 292 291 291 291 291 291 291 291 291 291 292 292 291 291 291 291 290 290 290 290 290 290 291
287 287 287 287 287 287 287 288 288 288 288 288 289 289 289 289 289 290 290 290 291 291 291 291 291 291 291 291 291 291 291 291 291 291 291 291 291 291 292 292 292 292 292 292 292 292 292 292 292 292 292 292 292 292 293 293 293 292 291 291 291 292 292 292 291 291 291 291 291 291 291 291 291 291 291 291 291 291 291 290 290 290 290 290 290 290
287 287 287 287 287 287 287 287 288 288 288 288 288 289 289 289 289 290 290 290 290 291 291 291 291 291 291 291 290 290 290 290 290 290 290 291 291 291 291 291 291 292 292 292 292 292 292 292 292 292 292 292 292 292 292 292 292 292 291 291 291 291 291 291 291 291 291 290 290 291 291 291 291 291 291 291 291 291 291 290 290 290 290 290 290 290
287 287 287 287 287 287 287 287 287 288 288 288 288 289 289 289 289 290 290 290 290 290 290 290 290 290 290 290 290 290 290 290 290 290 290 290 290 291 291 291 291 291 291 291 291 292 292 292 292 292 292 292 292 292 292 292 291 291 291 290 290 291 291 291 290 290 290 290 290 290 290 290 290 291 291 291 291 291 291 291 290 290 290 290 290 290
287 287 287 287 287 287 287 287 287 287 288 288 288 288 289 289 289 289 290 290 290 290 290 290 290 290 290 290 290 290 290 290 290 290 290 290 290 290 290 291 291 291 291 291 291 291 291 291 292 292 292 292 292 291 291 291 291 290 290 290 290 290 290 290 290 290 289 289 289 290 290 290 290 290 290 291 291 291 291 291 291 290 290 290 290 290
287 287 287 287 287 287 287 287 287 287 287 288 288 288 288 289 289 289 289 290 290 290 290 290 289 290 289 289 289 289 290 290 290 290 290 290 290 290 290 290 291 291 291 291 291 291 291 291 291 291 291 291 291 291 291 290 290 290 290 290 290 290 290 290 289 289 289 289 289 289 289 289 289 290 290 291 291 291 291 291 291 290 290 290 290 290
287 287 287 287 287 287 287 287 287 287 287 287 288 288 288 288 289 289 289 289 289 290 289 289 289 289 289 289 289 289 289 289 290 290 290 290 290 290 290 290 291 291 291 291 291 291 291 291 291 291 291 290 290 290 290 290 289 289 290 290 290 290 290 289 289 289 288 288 288 288 289 289 289 289 290 290 291 291 292 291 291 291 290 290 290 289
286 286 286 286 286 287 287 287 287 287 287 287 288 288 288 288 288 289 289 289 289 289 289 289 289 289 289 289 289 289 289 289 289 289 289 289 289 290 290 290 290 290 290 290 291 291 291 291 290 290 290 289 289 289 289 289 289 289 289 289 289 289 289 289 288 288 288 288 288 288 288 288 288 289 289 290 290 291 292 292 291 291 290 290 289 289
286 286 286 286 286 286 286 287 287 287 287 287 287 288 288 288 288 288 289 289 289 289 289 289 289 289 289 289 289 289 289 289 289 289 289 289 289 290 290 290 290 290 290 290 290 290 290 290 289 289 289 289 288 288 289 289 289 289 289 288 288 288 288 288 288 288 287 287 288 288 288 288 288 288 289 289 290 291 291 292 292 291 290 290 289 289
286 286 286 286 286 286 286 286 286 287 287 287 287 287 288 288 288 288 288 289 289 289 289 289 289 289 289 289 289 289 289 289 289 289 289 289 289 289 289 290 290 290 290 290 290 290 290 290 289 288 287 288 288 288 288 288 288 288 288 287 287 287 287 287 287 287 287 287 288 288 288 288 288 288 289 289 289 290 291 292 292 292 291 290 289 289
Wind_Speed
38 40 41 42 44 46 48 49 49 50 50 50 50 49 49 48 48 48 49 49 50 50 49 45 40 38 38 39 39 38 36 35 36 39 41 44 47 48 49 50 49 49 48 46 44 40 37 34 31 30 28 25 23 21 21 21 22 23 24 24 23 23 22 21 21 21 21 21 22 22 23 23 23 23 23 23 24 24 24 24 23 23 22 20 19 18
39 39 40 41 42 43 46 47 49 50 51 51 50 50 49 48 47 47 48 48 49 48 47 43 39 37 37 36 35 35 35 36 38 41 44 46 48 49 50 50 49 48 46 43 40 37 34 32 31 29 27 25 23 22 23 23 24 24 24 23 23 21 21 20 20 20 21 21 22 22 22 22 23 23 23 23 24 24 23 23 22 21 19 18 18 17
39 39 39 40 41 42 44 46 47 48 49 49 49 48 46 44 44 44 45 46 46 45 42 39 37 36 34 33 32 33 35 38 42 44 46 48 49 49 49 48 46 44 42 39 37 34 32 31 29 28 26 25 24 24 24 25 25 24 24 22 21 20 19 19 20 20 21 21 21 22 22 22 23 23 23 23 23 22 22 21 20 19 18 17 16 16
38 38 39 40 40 41 43 45 46 47 47 46 45 43 41 40 40 40 41 42 41 39 37 35 34 34 33 32 32 34 37 41 44 46 47 47 47 47 45 43 41 39 38 36 34 32 31 29 28 26 25 24 24 25 25 25 25 24 23 21 20 19 18 19 19 20 20 21 21 22 22 22 22 23 22 22 22 21 20 19 18 17 16 16 16 16
38 38 39 40 41 42 43 44 44 44 44 42 40 38 37 36 36 37 38 38 36 35 33 32 32 32 32 32 33 36 40 43 45 45 45 44 44 42 40 38 37 36 35 34 33 31 29 28 27 26 25 25 25 25 25 25 24 22 21 19 18 17 18 18 19 20 21 21 22 22 22 22 22 22 21 21 20 19 18 17 17 16 15 15 15 16
38 39 40 40 41 42 43 43 43 42 40 38 36 35 35 35 35 36 37 36 35 33 32 31 31 31 31 31 34 38 42 45 45 44 42 41 39 38 37 36 36 36 36 34 32 30 29 27 26 25 25 25 25 25 24 24 22 20 18 16 16 16 17 18 19 20 21 21 22 22 22 21 21 21 20 19 18 18 17 16 15 15 15 15 15 16
38 39 39 39 40 40 40 40 40 39 38 36 36 35 35 35 36 37 37 37 36 34 32 32 31 30 30 32 36 40 43 45 44 42 40 39 38 37 36 36 36 36 36 34 32 30 29 28 26 26 25 25 24 24 23 22 20 17 15 15 15 16 17 18 19 20 21 21 21 21 21 21 20 19 19 18 17 16 15 15 15 15 15 15 16 16
37 38 38 37 37 37 38 38 38 38 37 37 37 37 37 37 37 38 38 38 37 36 34 33 32 32 32 35 38 41 43 43 42 41 40 39 38 37 36 36 36 36 35 34 32 31 29 28 26 25 24 23 23 22 21 19 17 14 14 14 15 16 18 19 20 20 21 21 21 21 20 20 19 18 17 16 16 15 14 14 15 15 15 16 16 17
35 36 35 35 35 35 35 36 37 38 38 38 38 38 38 38 39 39 39 39 38 37 36 36 36 36 36 38 40 41 42 41 40 39 38 37 37 36 36 36 35 35 34 33 31 30 29 27 25 24 23 22 21 20 19 17 14 13 13 14 16 17 18 19 20 20 20 20 20 20 19 18 18 17 16 15 15 14 14 14 15 15 16 16 16 17
32 33 32 32 33 34 35 36 37 37 38 38 37 37 37 38 38 39 39 38 38 37 37 37 38 39 39 40 41 41 40 39 38 37 35 34 33 33 33 34 33 33 31 30 29 27 26 25 23 22 21 20 19 18 16 14 13 13 14 15 16 18 19 19 20 20 20 20 19 19 18 17 16 15 15 14 14 14 14 15 15 15 16 16 16 17
28 29 30 30 31 32 34 36 36 36 36 36 36 35 35 35 36 37 37 38 37 37 37 37 38 39 39 39 39 39 38 36 34 33 31 30 29 29 30 30 30 29 27 26 24 23 23 22 21 20 19 18 17 15 14 12 12 13 14 16 17 18 19 19 20 20 19 19 18 17 16 16 15 14 14 14 14 14 15 15 15 16 16 16 16 17
24 25 26 27 29 30 32 33 34 34 34 33 32 32 32 33 34 34 35 36 36 35 35 36 36 36 36 35 34 34 33 31 29 28 27 26 26 26 27 27 26 25 23 22 21 20 19 19 18 18 16 15 14 13 12 12 12 13 15 16 17 18 19 19 19 19 18 18 17 16 15 14 14 14 14 14 14 15 15 15 15 15 16 16 16 16
17 18 19 22 24 26 27 29 30 31 31 31 30 30 30 31 31 32 33 33 34 33 33 33 33 32 33 33 32 31 30 29 28 27 26 25 25 26 25 24 23 21 20 19 18 17 16 15 14 13 13 12 12 11 11 12 13 14 15 17 18 19 19 19 18 18 17 16 15 15 14 14 14 14 14 14 14 15 15 15 15 15 16 16 16 17
9 10 12 15 17 20 21 23 25 26 27 28 29 29 29 29 29 30 30 31 31 31 31 30 30 30 30 31 31 31 30 29 28 27 26 25 25 24 23 21 19 17 16 15 14 12 11 10 10 10 10 11 11 11 11 12 13 15 16 17 18 19 18 18 17 16 15 15 14 14 14 14 14 14 14 14 14 15 15 15 15 16 16 16 16 17
4 4 5 6 7 10 12 15 18 20 22 23 25 26 27 27 27 28 28 28 28 29 29 29 29 29 29 29 30 30 29 28 27 26 24 23 22 21 19 16 14 13 12 10 9 8 8 8 9 9 9 10 10 11 12 13 14 15 17 18 18 18 17 16 16 15 14 14 14 14 14 14 14 14 14 14 14 14 15 15 15 16 16 16 17 17
4 3 2 2 1 1 4 7 10 14 17 18 19 21 23 24 24 25 25 26 27 27 26 27 27 27 27 28 28 28 26 25 24 22 20 19 18 16 14 12 10 8 7 7 6 6 7 8 8 8 9 10 11 11 12 14 15 16 17 17 17 16 16 15 15 14 14 14 14 14 14 14 14 14 14 14 14 14 15 15 16 16 16 17 17 16
5 5 5 5 4 2 0 2 5 8 11 12 13 14 17 19 20 21 22 23 24 24 24 25 25 25 26 25 24 24 22 20 19 18 16 15 14 12 10 8 6 6 6 6 6 6 6 7 8 8 10 11 11 12 13 14 15 16 16 16 15 15 15 15 14 14 14 14 14 14 14 14 14 14 14 14 14 15 15 15 16 16 16 16 17 16
4 4 4 4 4 3 3 3 3 4 6 9 10 11 12 14 15 16 18 19 20 21 22 23 24 25 25 23 21 19 18 17 16 15 14 13 11 9 7 5 5 5 6 6 7 7 6 7 8 9 10 11 12 13 14 15 15 15 15 15 15 14 14 14 14 14 14 14 14 13 13 13 13 14 14 14 14 15 15 16 16 16 16 17 17 16
1 0 0 1 1 2 3 5 6 5 4 6 9 11 13 13 14 14 15 16 17 18 20 21 22 22 22 21 18 16 16 15 15 14 12 11 9 7 5 5 5 6 6 7 7 7 7 8 9 10 11 12 13 14 14 14 14 14 14 14 14 14 14 14 14 14 14 13 13 13 13 13 14 14 14 14 15 15 16 16 16 16 17 17 17 17
3 3 3 3 3 3 3 3 3 4 4 5 7 10 13 14 15 15 15 15 16 16 17 18 19 19 19 18 17 16 15 14 13 12 10 9 8 7 6 6 7 7 7 8 8 9 9 10 10 11 13 14 14 14 14 14 14 14 14 14 14 14 14 14 14 13 13 13 13 13 13 14 14 14 15 15 15 16 16 16 17 17 17 17 17 17
2 3 3 4 4 4 3 3 3 3 3 3 5 7 9 12 13 15 15 16 16 17 17 17 17 17 16 17 17 16 14 11 10 10 8 7 7 7 7 7 7 8 8 9 10 11 11 11 12 13 14 14 15 14 14 14 14 14 14 14 14 14 14 14 13 13 13 13 13 13 14 14 14 15 15 16 16 16 17 17 17 17 17 17 17 16
5 4 4 4 4 4 3 4 4 4 4 3 4 4 5 7 9 11 12 14 15 16 17 17 16 16 15 16 16 15 11 9 8 8 7 8 8 8 8 8 8 9 9 10 12 12 12 13 13 14 14 15 15 15 14 14 14 14 14 14 14 14 13 13 13 13 13 13 13 14 14 15 15 16 16 16 17 17 17 17 17 17 17 17 17 16
7 7 8 8 8 6 5 5 4 4 4 4 4 5 5 4 4 5 7 10 12 13 14 14 14 14 13 13 13 12 10 8 7 7 8 10 10 10 10 10 11 11 11 12 13 13 14 14 14 14 15 15 15 14 14 14 14 14 14 13 13 13 13 12 12 13 13 13 14 14 15 15 16 16 17 17 17 17 17 17 17 17 17 17 17 17
8 9 9 10 10 9 8 6 5 5 5 4 5 6 7 6 6 6 6 7 8 10 11 11 11 11 10 9 9 9 9 8 7 8 9 10 11 11 11 12 12 12 12 13 13 14 14 14 14 14 15 15 14 14 13 13 13 13 13 12 12 12 12 12 12 13 13 14 14 15 16 16 16 17 17 17 17 17 17 17 17 17 17 17 18 18
8 8 9 9 9 9 9 8 8 7 6 5 5 5 6 6 7 7 7 7 8 8 9 9 9 9 9 8 8 9 9 8 8 9 10 11 11 11 11 12 12 12 13 13 14 14 15 14 14 14 14 14 13 13 12 12 12 12 12 11 11 11 12 12 12 13 14 14 15 15 16 16 17 17 17 17 17 17 17 17 17 18 18 18 18 18
7 8 8 9 9 10 10 10 10 9 8 7 6 6 6 6 6 7 7 8 8 8 9 9 10 10 9 9 9 9 9 9 9 10 10 10 10 10 11 11 12 13 14 14 13 14 15 14 13 13 13 13 12 12 11 11 11 11 11 11 11 11 12 12 13 14 14 15 15 16 16 16 17 17 17 17 17 17 17 18 18 18 18 19 19 19
7 8 8 9 9 10 10 10 10 9 9 8 8 7 7 7 7 8 9 9 9 9 10 10 10 9 9 10 10 9 9 9 9 9 9 9 10 10 11 11 13 14 14 13 13 13 14 13 12 12 12 12 11 11 11 10 10 10 10 11 11 12 12 13 13 14 14 15 15 16 16 16 17 17 17 17 17 18 18 18 18 19 19 19 20 20
8 8 9 9 9 9 9 9 9 9 9 9 9 9 8 8 8 9 9 9 9 9 10 10 9 9 10 10 10 9 9 9 9 9 9 9 10 11 11 12 13 14 14 12 12 13 13 12 11 11 11 11 11 10 10 10 10 10 10 11 12 12 13 13 14 14 14 15 15 15 16 16 17 17 17 17 18 18 18 19 19 20 20 20 20 20
10 10 10 10 9 9 9 9 9 9 9 9 9 9 9 9 8 8 9 9 9 10 10 10 10 10 10 10 9 9 10 10 10 10 10 10 11 12 12 13 14 14 13 12 12 12 12 12 12 11 11 11 10 9 9 10 10 10 11 12 12 13 13 13 14 14 14 14 15 16 16 17 17 17 17 18 18 18 19 19 20 20 21 21 21 21
11 11 11 11 10 10 10 9 9 9 9 9 9 9 9 9 9 10 11 11 11 11 11 10 10 10 10 9 10 10 11 11 11 11 11 12 12 13 13 14 14 14 13 12 12 12 13 13 13 12 11 10 10 9 9 10 10 11 11 12 12 13 13 13 13 14 14 15 15 16 16 17 17 17 18 18 18 19 19 20 20 21 21 22 22 22
11 11 11 11 11 10 10 10 9 9 9 10 10 10 10 10 10 11 11 11 11 11 11 10 10 10 10 10 10 11 12 12 12 12 12 13 13 13 13 14 15 14 13 13 13 13 13 14 14 13 12 11 10 10 10 10 11 11 11 12 12 13 13 13 14 14 14 15 16 16 17 17 17 18 18 18 19 19 20 20 21 22 22 22 22 22
11 11 11 11 11 10 10 10 9 9 9 9 10 10 10 9 10 10 10 10 10 10 10 10 10 10 10 10 11 11 12 12 12 12 13 13 14 14 14 15 15 14 14 14 14 13 12 15 16 15 13 11 10 10 10 10 11 11 11 11 12 13 13 14 14 15 15 16 16 17 17 17 18 18 19 19 19 20 20 21 22 22 23 23 23 23
11 11 11 11 11 10 10 9 9 8 8 8 8 8 8 8 9 9 9 9 9 9 10 10 10 10 11 11 11 12 12 12 12 13 13 13 14 14 14 15 15 14 14 14 14 14 12 14 16 15 13 11 11 10 11 11 11 11 11 12 12 13 14 15 15 15 16 16 16 17 17 17 18 19 19 20 20 20 21 21 22 23 23 24 24 24
10 10 10 10 10 10 9 9 9 8 8 8 8 8 7 7 8 8 8 8 9 9 10 10 10 11 11 12 12 12 12 12 12 13 13 13 13 14 15 15 15 15 14 15 14 14 13 13 14 14 13 11 11 11 11 11 11 12 12 13 13 14 15 15 15 16 16 16 16 17 17 18 18 19 20 20 20 21 21 22 22 23 23 24 24 24
9 9 9 9 9 9 9 9 9 9 9 9 9 9 8 8 8 8 9 9 9 10 10 11 11 12 12 13 13 13 13 13 13 13 13 13 13 14 15 16 15 15 15 15 15 14 13 12 12 12 12 11 11 11 11 11 12 12 13 14 14 15 15 15 15 15 16 16 16 17 18 19 19 20 20 20 21 21 21 22 22 23 23 24 24 24
9 9 9 9 9 10 10 9 9 10 10 10 10 10 10 10 10 10 10 11 11 11 11 12 12 13 13 13 13 13 13 13 13 13 13 13 14 15 16 16 16 16 16 15 15 14 13 12 12 12 12 11 11 12 12 12 12 13 13 14 14 15 15 15 15 15 16 16 17 18 18 19 19 20 20 21 21 21 22 22 22 23 23 23 23 23
8 9 9 9 10 10 10 10 10 10 11 11 11 11 11 11 11 11 11 12 12 12 12 12 13 13 13 13 13 13 13 13 12 12 13 13 14 15 16 16 16 16 16 15 15 14 14 13 12 12 12 13 13 13 13 13 14 13 13 13 12 13 14 14 15 15 16 16 17 18 18 19 20 20 20 21 21 21 22 22 22 23 23 22 22 22
9 9 9 9 10 10 10 10 10 10 11 11 11 11 11 11 11 11 11 11 12 12 12 12 12 12 12 12 12 12 12 12 12 12 13 14 14 15 16 16 16 16 16 16 15 14 13 13 13 13 13 14 14 14 15 15 15 15 15 14 13 12 13 14 15 15 16 16 17 18 18 19 20 20 21 21 21 22 22 22 22 22 22 22 22 21
9 9 9 9 9 10 10 10 10 10 10 10 10 10 10 11 11 11 11 11 11 11 12 12 12 12 12 12 11 11 12 12 12 12 13 13 14 15 16 16 15 15 15 15 15 14 13 13 13 13 14 14 15 15 16 17 17 17 17 16 15 14 13 14 14 15 15 16 17 17 18 19 20 20 20 21 21 22 22 22 22 22 22 21 21 21
9 9 9 9 9 9 9 10 10 10 10 10 10 10 10 10 10 11 11 11 11 11 12 12 12 12 11 11 11 11 11 11 12 12 12 13 14 15 15 15 15 15 14 14 14 13 13 14 14 15 15 15 16 16 17 18 18 18 18 18 17 16 14 14 14 14 15 16 17 17 18 19 19 20 20 21 21 22 22 22 22 21 21 21 21 20
9 9 9 9 9 9 10 10 10 10 10 10 10 10 10 10 10 11 11 11 11 11 12 12 12 11 11 11 11 11 11 11 11 11 11 12 13 14 15 15 15 15 14 14 14 14 14 14 15 15 16 17 17 18 18 18 18 19 18 18 18 18 17 16 15 15 15 16 17 18 18 19 19 20 20 21 21 22 22 22 21 21 20 21 21 20
9 10 10 10 10 10 10 10 10 10 10 10 10 10 10 11 11 11 11 11 11 12 12 11 11 11 11 11 11 11 11 11 11 11 11 12 12 13 14 14 14 14 14 14 15 15 15 16 16 16 17 17 18 18 18 18 19 19 18 18 19 19 19 18 18 17 16 16 16 17 18 19 19 20 20 21 21 21 21 21 20 20 20 20 20 20
10 10 10 10 10 10 10 10 10 10 10 10 10 10 11 11 11 11 11 11 12 12 11 11 11 11 10 10 11 11 11 11 11 11 11 12 12 13 13 14 14 15 15 15 16 16 17 17 17 17 17 18 18 18 18 19 19 19 18 19 19 19 19 19 19 19 18 17 17 17 18 19 19 20 20 20 21 21 20 20 19 19 19 19 19 20
10 11 11 11 11 11 10 10 10 10 10 10 10 10 11 11 11 11 11 11 11 11 11 11 10 10 10 10 10 10 10 11 11 11 11 12 12 13 14 14 15 15 16 16 16 17 17 17 17 18 18 18 18 19 19 19 19 19 19 19 20 20 20 20 21 21 20 19 18 18 18 19 20 20 20 20 20 20 20 19 19 18 18 18 19 19
11 11 11 11 11 11 11 10 10 10 10 10 10 10 10 11 11 11 11 11 11 11 11 10 10 10 10 10 11 11 11 11 11 12 12 13 13 14 14 15 15 16 16 17 17 17 17 17 18 18 18 18 18 18 19 19 19 19 19 19 20 20 20 21 21 21 20 20 19 19 20 20 21 21 20 20 19 19 19 19 18 18 18 18 18 19
12 12 12 12 11 11 11 10 10 10 10 10 10 10 10 10 11 11 11 11 11 11 11 11 10 10 11 11 11 11 11 12 12 12 13 13 14 14 15 16 16 16 17 17 17 17 17 18 18 18 18 19 18 18 18 18 19 19 19 20 20 20 20 20 20 20 20 20 20 21 21 22 22 21 21 20 19 19 18 18 18 18 18 18 18 18
12 12 12 12 11 11 11 11 10 10 10 10 10 10 10 10 10 11 11 11 11 11 11 11 11 11 12 12 12 12 12 12 13 13 14 14 15 15 16 16 16 17 17 17 17 17 18 18 18 19 19 18 18 18 18 18 18 19 20 20 20 20 20 19 19 19 20 20 21 22 22 22 23 23 22 21 20 19 19 18 18 18 17 17 17 17
12 12 12 12 12 11 11 11 11 10 10 10 10 10 10 10 11 11 11 11 12 12 12 12 12 12 13 13 13 13 13 13 14 14 14 15 16 16 17 17 17 17 17 18 18 18 18 18 19 19 18 18 18 18 18 18 19 19 19 20 20 20 19 19 19 19 20 21 21 22 23 23 23 24 24 23 22 21 20 19 18 17 17 16 16 16
12 12 12 12 12 11 11 11 11 11 11 11 11 10 10 11 11 11 11 11 12 12 12 13 13 13 13 14 14 14 14 14 14 14 15 16 17 18 18 18 18 18 18 18 18 19 19 19 19 19 18 18 17 17 18 19 19 19 19 18 18 18 18 19 19 20 20 21 22 22 23 23 23 24 24 24 24 23 21 20 18 17 16 16 16 16
13 12 12 12 12 12 12 12 11 11 11 11 11 11 11 11 11 11 11 11 12 12 12 13 13 14 14 14 14 14 14 15 15 15 16 17 18 19 19 19 19 19 19 19 19 19 19 18 17 18 18 18 17 16 17 18 18 18 17 17 17 17 18 19 20 21 21 22 23 23 23 23 23 23 23 23 23 23 22 20 18 17 16 15 15 15
13 13 12 12 12 12 12 12 12 11 11 11 11 11 11 11 11 11 11 12 12 12 12 13 13 14 14 14 15 15 15 16 16 17 18 19 19 19 19 19 19 18 18 18 18 18 18 16 15 14 15 17 17 15 14 15 16 17 16 16 17 18 19 20 21 21 22 23 23 23 23 23 22 22 22 22 22 22 22 21 19 17 15 15 15 15
Wind_Direction
242 243 243 242 240 238 238 238 238 236 236 236 236 235 235 233 231 229 227 225 225 224 224 224 223 224 225 224 223 222 225 230 235 237 235 231 228 225 224 223 223 223 224 224 222 220 221 224 228 231 233 237 243 251 259 264 267 270 273 275 278 279 280 281 281 281 282 283 284 285 287 288 289 289 289 288 288 288 288 287 287 286 286 285 285 285
241 242 242 241 239 237 237 238 238 237 236 236 236 235 233 231 229 227 224 222 220 220 219 219 219 220 223 224 226 229 232 235 235 233 230 227 224 223 222 223 224 223 220 218 217 218 222 225 228 231 234 239 247 255 261 265 268 271 274 276 278 279 280 280 281 282 283 284 286 287 288 289 289 288 288 287 287 287 286 286 285 285 285 285 285 286
240 240 240 240 238 236 235 237 237 237 236 235 234 233 230 228 225 222 219 217 216 216 214 214 215 217 221 226 232 237 240 239 235 230 226 224 223 223 223 223 222 220 216 215 217 221 224 227 229 232 236 242 249 256 261 265 269 272 275 277 278 278 279 280 282 283 284 285 287 287 288 287 287 287 287 286 286 285 284 284 283 284 284 285 285 286
240 239 239 239 238 236 235 235 236 236 234 232 231 229 226 224 221 218 215 213 213 213 211 211 214 217 222 227 233 238 241 238 232 225 221 221 221 222 222 221 220 218 219 220 223 225 227 229 231 235 240 246 252 257 262 266 270 273 275 276 277 278 279 281 283 284 286 286 286 287 286 286 286 286 285 284 283 283 282 282 282 283 283 284 285 286
240 239 238 239 237 235 235 234 234 233 231 228 226 224 222 220 218 216 214 212 212 213 213 215 218 221 224 227 233 237 238 234 228 222 218 217 217 218 219 222 224 226 227 228 228 228 230 233 237 241 245 250 254 258 263 267 270 272 273 274 276 278 281 283 284 285 286 286 285 285 285 285 284 283 282 281 280 280 280 280 281 282 283 284 285 286
239 238 238 237 236 234 234 232 230 228 226 224 222 220 219 219 218 217 216 215 215 217 220 223 225 226 228 230 234 236 235 231 226 221 217 215 215 217 220 225 230 232 232 231 230 232 235 240 244 247 250 253 256 259 263 266 269 270 272 275 277 279 282 283 284 284 284 284 284 284 283 283 282 280 279 278 277 277 278 279 281 282 283 284 285 286
238 238 237 235 234 233 231 228 226 225 223 221 220 219 218 218 218 218 218 218 219 221 224 227 228 229 230 232 233 232 230 226 223 220 218 216 216 219 223 228 231 232 232 231 233 237 242 247 250 252 253 255 258 260 263 265 267 270 273 276 278 280 282 283 283 283 283 282 282 282 281 279 278 276 276 275 275 276 277 279 280 281 283 284 285 285
237 238 237 233 231 230 229 226 224 223 221 220 219 218 217 217 217 217 218 218 219 219 221 224 226 228 229 230 229 226 223 221 219 218 217 217 218 221 225 229 231 231 231 233 237 242 247 251 253 254 255 257 258 260 262 264 267 272 276 278 280 281 282 283 282 282 281 281 280 279 277 276 275 274 274 274 275 275 277 278 280 281 282 283 284 285
238 237 237 234 230 227 225 224 223 221 219 218 218 217 216 216 216 216 217 216 216 216 216 218 220 223 225 226 223 220 217 216 216 216 217 218 220 223 225 228 230 232 234 237 241 246 250 252 254 255 256 257 258 260 262 264 269 274 277 279 281 282 282 281 280 279 279 277 276 275 274 273 273 272 273 274 275 276 277 278 279 280 281 283 284 286
239 237 236 234 231 227 224 221 221 220 218 216 216 216 217 216 216 215 214 213 213 213 213 213 214 216 218 219 218 215 213 214 215 217 219 222 223 225 227 229 231 234 237 240 244 247 249 250 252 253 254 256 257 259 262 266 271 276 278 279 280 280 279 278 277 276 274 274 273 272 271 271 271 272 273 274 275 276 277 278 278 279 281 283 285 286
234 234 233 230 228 227 224 222 221 220 218 215 214 215 216 217 217 215 213 212 212 212 211 210 210 210 211 212 213 214 213 215 217 220 224 227 229 230 230 232 234 237 239 241 243 244 245 247 248 250 252 255 257 261 264 269 273 276 277 278 278 277 275 273 272 271 271 270 270 270 270 270 271 272 273 274 275 276 277 277 278 280 282 283 285 287
232 232 232 230 228 226 224 223 222 222 220 217 215 214 215 216 217 217 216 214 213 212 211 211 211 211 211 212 215 217 219 221 225 228 231 234 236 236 237 237 238 240 241 242 242 242 243 244 247 250 254 258 263 267 271 273 275 276 276 276 274 272 271 269 269 268 268 268 268 268 269 270 271 271 272 273 274 275 276 277 279 281 283 285 286 287
236 236 236 234 232 229 227 224 223 222 221 220 218 217 216 217 218 218 218 218 218 217 216 216 216 217 219 220 223 226 228 231 234 236 238 240 242 242 242 242 242 242 241 241 242 242 244 246 251 257 263 269 273 275 276 275 275 275 275 273 271 269 267 267 267 267 267 267 267 267 268 268 269 270 271 272 273 274 276 278 280 282 284 286 287 288
234 236 238 237 234 232 231 228 225 223 223 223 223 223 222 222 221 220 219 220 221 223 224 224 225 227 228 230 232 234 236 238 240 241 243 243 244 244 243 241 239 238 238 239 242 246 252 260 268 275 279 281 279 276 274 273 274 274 272 269 267 266 265 266 266 266 266 266 266 266 266 266 267 267 268 270 271 273 276 278 281 283 285 286 288 288
204 214 223 228 230 230 229 227 226 225 224 225 225 225 226 225 224 223 222 222 224 226 228 230 232 234 236 237 239 240 241 242 243 244 244 244 243 241 238 234 233 235 239 244 254 265 275 283 288 289 285 278 272 270 270 271 272 271 268 266 265 264 264 265 265 265 265 264 264 264 263 264 264 265 266 268 270 273 276 279 282 284 285 287 287 287
120 108 90 76 89 175 208 216 220 222 222 222 222 223 223 223 223 224 224 224 226 228 230 232 235 237 238 240 241 242 242 243 243 243 241 238 236 233 229 228 233 242 252 264 276 286 293 295 293 287 277 269 266 267 269 270 269 267 265 264 263 264 264 264 264 263 263 262 261 261 260 261 262 263 265 268 271 274 278 280 283 284 285 286 286 286
83 67 56 51 46 43 194 209 211 212 213 215 217 219 221 222 222 224 225 226 226 228 229 231 233 235 236 236 238 238 238 237 236 234 231 228 225 223 224 229 241 257 270 279 285 290 293 290 284 276 270 267 267 269 269 268 266 265 263 263 263 263 263 262 261 261 260 259 258 258 258 259 261 263 266 269 273 276 279 281 282 283 284 284 284 283
79 71 69 60 42 16 344 314 276 233 214 210 211 213 216 218 220 222 225 226 227 227 228 229 230 232 232 230 229 228 226 223 221 220 219 218 218 221 229 236 241 250 265 274 281 283 281 276 272 270 269 269 269 269 268 266 265 264 263 262 261 261 260 259 258 257 256 256 256 256 257 259 262 264 268 271 274 277 279 280 281 282 282 282 281 281
232 259 81 44 21 348 331 325 320 306 270 234 218 213 212 212 213 216 220 222 225 227 228 228 229 230 230 227 222 215 208 206 206 207 210 210 210 215 224 224 225 233 248 262 271 273 271 268 267 269 270 270 269 267 265 264 263 262 260 259 259 257 257 256 255 254 254 254 255 256 258 261 264 267 270 273 275 277 278 279 280 280 279 279 279 279
227 244 250 249 250 259 274 286 301 306 294 267 244 231 221 216 212 211 212 213 216 219 221 224 226 226 225 221 213 204 198 198 199 201 202 202 201 202 209 212 217 225 240 255 266 270 268 266 266 267 267 266 265 263 261 260 258 257 255 255 254 253 252 252 252 252 252 254 256 258 260 263 266 269 272 274 275 276 277 278 278 278 278 278 279 280
242 245 246 245 243 244 244 239 241 246 251 259 253 243 233 225 221 216 212 210 209 209 211 215 218 217 214 210 204 200 199 201 198 194 198 206 208 209 216 223 230 237 247 258 266 268 267 265 263 263 263 261 259 257 255 253 252 251 250 249 249 249 249 249 250 251 253 256 258 261 264 266 269 271 273 274 275 275 276 276 276 277 278 279 281 283
314 303 297 291 277 258 241 234 236 237 232 233 230 227 227 227 227 223 216 212 208 207 207 208 208 205 202 199 197 198 203 204 194 190 204 222 228 232 241 249 251 253 256 261 266 267 266 263 260 258 257 256 253 251 249 247 247 246 245 245 245 245 246 248 250 252 255 258 261 264 267 269 271 272 273 274 275 275 275 275 276 277 279 281 284 287
303 304 305 304 299 291 282 269 254 245 236 218 202 195 194 201 212 217 214 211 208 205 203 201 199 197 195 192 193 198 205 206 202 203 217 231 239 246 256 261 262 260 259 262 265 265 263 259 256 254 253 251 248 246 244 243 242 242 242 242 242 244 246 249 252 255 259 262 265 267 269 271 272 273 274 274 274 274 275 276 277 279 281 284 286 288
286 289 292 291 291 291 289 283 274 262 251 226 202 190 187 185 178 173 180 190 193 193 194 196 198 200 200 199 200 204 211 217 222 226 231 238 246 253 258 261 261 259 257 259 260 261 259 255 252 249 248 247 245 242 240 240 240 240 240 241 242 245 248 252 255 259 262 265 267 268 270 271 272 273 273 273 274 274 276 277 279 281 283 285 287 288
279 279 278 278 278 278 277 274 271 266 259 242 221 203 193 187 182 178 177 178 182 187 193 200 205 209 212 216 217 217 224 234 240 241 242 247 252 256 257 258 257 254 251 253 254 255 253 250 247 245 243 243 242 240 238 238 239 240 241 243 245 248 251 255 258 262 264 266 267 269 270 271 272 272 273 273 274 275 277 279 280 282 283 285 286 287
277 278 277 276 274 270 267 264 262 259 255 247 234 219 208 200 195 192 191 193 197 202 208 211 213 215 222 228 228 226 232 242 249 251 249 252 255 256 255 255 253 250 246 246 247 248 247 246 243 239 238 238 238 237 236 237 239 241 243 245 248 251 254 257 260 262 264 265 267 268 270 271 272 272 273 273 274 276 278 279 281 282 283 284 285 286
270 273 276 276 274 271 266 260 255 251 247 243 236 229 220 214 211 208 205 204 207 211 214 213 214 219 228 234 234 233 236 243 249 252 252 251 250 249 248 249 249 247 245 243 242 242 242 240 237 233 232 232 233 233 234 236 239 241 244 247 250 253 255 257 259 261 263 265 267 269 270 271 272 272 273 274 275 277 278 280 281 281 282 283 284 285
259 263 267 270 271 271 269 264 258 250 244 239 236 232 228 224 218 211 205 206 212 217 220 218 218 223 232 238 239 239 240 242 244 247 249 247 243 240 240 243 245 245 243 240 238 237 236 232 229 226 226 227 228 230 233 235 239 242 245 248 250 252 255 257 259 262 264 266 268 270 271 271 272 272 273 274 276 277 279 280 281 281 282 283 284 285
252 255 258 261 263 265 266 265 262 256 248 242 237 235 233 230 223 215 213 220 224 225 227 227 228 232 238 242 243 242 241 240 241 242 244 241 237 235 236 239 242 243 240 237 234 232 229 224 220 218 219 222 224 227 231 235 238 241 245 248 250 253 256 258 262 265 267 269 270 271 271 271 272 273 274 275 276 278 279 280 280 281 282 283 284 284
251 253 255 256 258 259 260 260 260 258 253 248 244 241 239 236 231 228 230 235 234 232 234 236 238 239 240 240 241 241 240 239 240 241 241 237 234 232 233 236 239 239 236 231 229 228 223 218 213 212 213 216 221 225 231 236 239 242 245 249 253 256 260 263 266 269 270 271 271 271 271 271 272 273 274 276 277 278 279 280 281 282 283 284 284 285
255 255 256 256 256 257 257 257 257 256 255 252 249 247 245 243 240 239 241 243 242 240 240 242 242 241 239 238 238 238 239 240 240 241 239 234 232 231 232 234 237 236 231 226 223 221 217 213 211 211 212 215 221 228 234 239 243 246 250 254 258 262 266 268 270 272 272 272 272 271 271 272 273 274 275 276 278 279 280 281 282 283 284 284 284 285
257 257 256 255 256 256 257 256 255 255 254 253 253 252 252 250 248 247 247 248 248 247 245 244 243 241 239 237 237 238 241 241 241 241 239 234 231 231 231 233 234 232 228 222 218 216 214 210 210 212 214 218 226 235 242 247 251 255 258 262 266 269 271 273 273 273 273 273 272 272 272 273 273 274 276 277 279 280 281 282 283 284 285 285 285 286
255 255 254 254 254 253 252 251 250 250 249 249 249 250 251 252 252 251 250 250 250 248 246 243 240 238 236 236 236 238 241 241 240 239 237 233 232 231 231 231 230 227 223 219 216 215 215 211 211 213 217 225 234 243 250 256 260 264 268 270 272 274 275 276 276 275 274 273 273 273 273 274 274 275 277 278 279 280 281 283 284 285 286 286 287 287
249 249 250 249 249 248 246 244 242 239 238 236 235 236 238 239 240 241 242 243 244 243 240 238 236 234 233 232 233 234 236 237 237 236 236 232 231 231 232 230 227 222 218 214 212 212 213 212 211 213 220 231 241 248 255 260 265 269 273 275 276 276 277 278 278 277 276 275 274 274 274 274 275 276 277 278 279 280 282 283 284 285 287 287 288 289
240 240 240 240 239 238 236 233 230 228 225 223 222 222 222 223 223 225 226 228 231 233 233 233 232 231 230 229 229 230 233 235 235 234 233 230 229 229 230 228 224 219 214 211 209 209 209 211 211 214 221 233 245 252 257 261 265 271 275 278 279 279 279 279 278 277 276 275 274 273 273 274 274 275 276 277 279 280 282 283 285 286 287 288 288 289
232 230 229 228 227 225 223 221 219 217 216 216 216 217 217 217 218 218 219 221 223 225 226 228 229 229 229 229 228 229 231 233 233 232 231 228 226 227 227 226 223 218 213 210 210 210 210 213 217 221 227 235 244 252 257 263 268 274 278 281 282 282 281 280 278 277 275 274 273 272 272 273 273 274 275 277 278 280 282 283 285 286 286 287 288 288
224 222 220 219 218 216 214 214 214 213 213 214 216 217 218 219 219 220 220 220 221 223 224 225 226 228 228 229 229 229 230 231 232 232 230 227 225 225 225 225 223 219 214 213 213 216 218 223 228 235 241 248 255 261 267 271 275 279 282 283 283 283 282 281 279 277 275 273 272 271 271 271 272 273 274 276 278 280 282 283 285 286 287 287 287 286
217 216 214 214 213 211 210 211 211 213 213 215 217 220 220 222 223 223 223 223 223 224 225 226 227 228 229 230 231 232 233 233 234 233 232 228 226 224 224 224 223 221 219 218 220 224 229 235 241 248 254 260 265 272 278 282 285 287 287 287 286 285 283 281 280 278 276 274 273 271 271 271 272 273 275 276 278 280 281 283 284 285 285 285 285 284
214 212 212 211 211 210 210 211 213 214 216 218 220 222 223 225 226 226 226 227 226 226 226 227 228 229 231 232 234 235 235 235 235 234 232 229 226 224 223 222 223 223 224 225 228 233 239 246 252 258 263 269 274 279 283 286 289 290 290 290 289 287 285 282 280 279 278 276 274 273 273 273 274 275 276 277 278 280 281 282 283 283 284 283 283 283
214 214 214 215 214 214 213 214 216 218 219 221 222 223 225 226 228 228 229 229 229 228 228 228 229 230 232 233 234 235 235 234 233 232 230 228 225 224 223 223 224 226 229 233 238 243 249 255 260 265 270 275 279 283 286 288 290 291 291 291 291 289 287 284 282 281 279 278 276 275 274 274 275 275 276 277 279 280 282 283 284 284 284 285 285 285
216 217 220 221 221 220 219 219 220 220 222 223 225 226 228 229 229 229 230 230 230 229 229 229 230 231 232 233 233 233 232 230 229 228 226 225 223 224 225 227 229 233 237 242 247 252 256 261 266 271 275 278 281 284 287 289 290 291 292 292 291 290 288 287 285 283 280 278 277 276 275 275 275 275 276 277 279 281 282 284 286 286 286 286 286 287
218 221 224 225 225 225 224 223 223 224 225 227 228 230 230 231 230 230 230 229 229 229 230 230 230 231 232 232 232 231 229 227 225 224 223 222 223 225 228 231 236 240 245 250 255 259 262 265 269 273 277 280 282 285 286 288 290 292 293 292 290 289 288 288 286 285 282 280 279 278 277 276 275 275 276 277 279 280 282 284 287 288 289 289 288 287
222 224 226 226 227 226 226 226 227 228 229 230 231 232 232 232 231 229 229 228 228 229 229 230 230 230 230 231 230 229 227 226 224 223 224 225 227 229 233 237 241 245 250 255 260 263 265 268 271 275 278 281 283 286 288 289 290 292 293 292 291 290 289 289 288 287 286 284 282 281 279 278 278 278 278 279 280 281 283 286 289 290 291 290 289 288
224 225 226 227 228 228 228 229 230 230 231 231 231 232 233 232 231 229 228 228 228 228 229 229 229 230 230 230 229 228 227 227 227 227 229 231 233 236 240 243 246 249 253 258 262 265 268 271 274 277 280 282 285 287 288 289 290 291 292 292 291 290 289 289 290 290 290 289 287 285 283 282 282 281 281 281 282 283 285 288 290 291 290 289 288 287
224 226 228 229 230 230 230 230 231 231 232 231 231 231 232 231 230 229 228 227 228 228 227 228 228 228 228 229 230 230 231 232 234 235 236 238 241 243 246 249 252 254 257 260 263 266 270 274 277 279 281 283 286 288 289 289 289 289 290 290 290 290 289 290 291 292 292 292 291 290 289 287 287 287 286 284 284 285 287 289 290 290 289 288 287 287
228 229 230 231 231 231 231 231 232 232 231 230 230 230 231 231 230 229 228 228 227 226 226 227 227 227 228 230 232 233 236 238 241 243 244 246 248 249 251 254 256 258 261 263 266 269 273 276 279 281 283 284 285 287 288 289 289 288 288 288 288 288 289 290 291 292 292 293 293 292 292 292 292 292 291 289 286 286 287 289 291 291 291 289 288 288
231 232 232 233 233 232 232 233 233 232 231 230 229 229 230 230 230 230 230 229 228 226 225 226 227 227 229 232 235 237 239 242 245 249 251 253 254 255 257 258 260 262 264 267 270 273 276 278 280 283 284 286 286 287 288 288 288 287 287 287 287 287 288 289 290 291 292 293 294 294 294 295 296 296 294 292 290 288 288 289 291 293 293 292 291 290
232 233 233 234 234 233 234 233 233 232 231 230 230 230 230 230 230 230 230 230 229 227 226 226 227 228 230 234 237 240 242 245 249 252 255 258 259 260 261 262 264 266 269 272 274 277 279 281 283 284 286 286 287 288 288 287 286 286 286 286 287 287 288 289 290 292 293 294 295 295 297 298 299 299 297 295 293 291 290 291 293 295 295 295 294 294
233 234 235 235 235 234 234 234 233 233 232 231 232 231 232 232 232 231 231 231 231 229 228 228 229 230 232 235 238 242 245 248 251 254 256 259 261 263 265 267 270 273 275 278 279 281 282 284 285 286 286 286 286 286 287 286 285 285 285 285 286 287 288 290 291 292 293 294 294 295 296 298 298 298 297 296 294 293 292 292 294 296 298 299 299 298
234 235 235 236 236 235 235 235 234 234 234 234 233 233 233 234 234 234 233 233 232 232 231 231 232 233 235 236 239 242 246 249 251 253 255 257 260 263 266 269 272 274 276 278 279 280 281 282 284 286 285 284 284 284 284 284 284 284 284 285 287 288 290 291 291 292 293 293 294 295 295 296 296 296 295 295 294 293 293 292 294 298 302 303 302 301
235 236 237 237 237 237 236 236 236 236 236 236 235 235 234 235 235 236 235 235 235 235 235 235 235 236 238 240 241 243 246 248 250 252 253 256 259 262 266 269 271 272 273 274 275 275 274 275 276 279 283 283 283 282 281 282 283 285 286 287 288 289 290 291 291 291 292 292 293 294 294 295 294 294 294 295 296 296 295 294 295 299 304 305 304 302